Home > Weather > Windhoek > Past weeks

Flag for Namibia Past Weather in Windhoek, Namibia — Yesterday and Last 2 Weeks

Now
72 °F

Sunny.


Feels Like: 74 °F
Forecast: 43 / 73 °F
Wind: 5 mph from East

Location: Windhoek

Current Time: May 27, 2016 at 5:15:02 PM

Latest Report: May 27, 2016 at 4:00 PM


Visibility: 10 mi

Pressure: 30.33 "Hg (24.97 "Hg at 1680m altitude)

Humidity: 16%

Dew Point: 23 °F

Location of WindhoekLocation

Past Weather in Windhoek — Graph

°F

Windhoek Temperature Yesterday

Maximum temperature yesterday: 75 °F (at 3:00 PM)
Minimum temperature yesterday: 48 °F (at 6:00 AM)
Average temperature yesterday: 61 °F

High & Low Weather Summary for the Past Weeks

 TemperatureHumidityPressure
High81 °F (May 16, 1:00 PM)71% (May 13, 2:00 AM)30.48 "Hg (May 13, 2:00 AM)
Low39 °F (May 13, 6:00 AM)8% (May 13, 2:00 PM)30.07 "Hg (May 12, 4:00 PM)
Average62 °F31%30.33 "Hg
* Reported May 12 4:00 PM — May 27 4:00 PM, Windhoek, Weather by CustomWeather, © 2016

Note: Actual official high and low records may vary slightly from our data, if they occured in-between our weather recording intervals... More about our weather records

Advertising

Windhoek Weather History for the Previous 24 Hours

Scroll right to see more
 ConditionsComfort  
Time TempWeatherWind HumidityBarometerVisibility
4:00 PM
Fri, May 27
72 °FSunny.5 mph16%30.33 "Hg10 mi
3:00 PM73 °FSunny.6 mph17%30.33 "Hg10 mi
2:00 PM75 °FSunny.3 mph18%30.33 "Hg10 mi
1:00 PM73 °FSunny.6 mph19%30.36 "Hg10 mi
12:00 PM73 °FSunny.6 mph20%30.39 "Hg10 mi
11:00 AM70 °FSunny.5 mph25%30.42 "Hg10 mi
10:00 AM68 °FMild.5 mph26%30.42 "HgN/A
9:00 AM63 °FSunny.5 mph32%30.42 "Hg10 mi
8:00 AM57 °FSunny.5 mph39%30.42 "Hg10 mi
7:00 AM52 °FSunny.7 mph44%30.39 "Hg10 mi
6:00 AM50 °FSunny.7 mph43%30.36 "Hg10 mi
5:00 AM50 °FClear.7 mph43%30.36 "Hg10 mi
4:00 AM52 °FCool.7 mph38%30.33 "HgN/A
3:00 AM54 °FCool.7 mph35%30.33 "HgN/A
2:00 AM54 °FCool.8 mph38%30.33 "HgN/A
1:00 AM54 °FCool.7 mph38%30.33 "HgN/A
12:00 AM54 °FCool.8 mph35%30.33 "HgN/A
11:00 PM
Thu, May 26
57 °FRefreshingly cool.8 mph31%30.36 "HgN/A
10:00 PM57 °FRefreshingly cool.8 mph31%30.36 "HgN/A
9:00 PM59 °FRefreshingly cool.7 mph27%30.33 "HgN/A
8:00 PM59 °FRefreshingly cool.7 mph29%30.33 "HgN/A
7:00 PM61 °FClear.5 mph27%30.30 "Hg10 mi
6:00 PM66 °FClear.No wind22%30.30 "Hg10 mi
5:00 PM72 °FClear.3 mph19%30.30 "Hg10 mi
Weather by CustomWeather, © 2016

See weather overviewHow to use our weather pages